DateTimeUTC,F1_A11,F1_S11,BsB_S11,BsG_S11,BsR_S11,BbsB_S11,BbsG_S11,BbsR_S11,BaB_A11,BaG_A11,BaR_A11,Tu_S11,T_S11,Uu_S11,U_S11,P_S11,T1_A11
2021-11-13T15:00:00Z,00000200,21000000,,,,,,,0000.34,-000.00,0000.06,15.8,22.4,,00.0,0641.5,30.6
2021-11-13T15:01:00Z,00000200,21000000,,,,,,,0000.16,0000.41,0000.30,15.8,22.4,,00.0,0641.5,30.6
2021-11-13T15:02:00Z,00000200,21000000,,,,,,,-000.06,-000.03,0000.10,15.8,22.4,,00.0,0641.5,30.6
2021-11-13T15:03:00Z,00000200,61000000,,,,,,,0000.61,0000.39,0000.44,15.8,22.4,,00.0,0641.5,30.6
2021-11-13T15:04:00Z,00000200,41000000,0000.22,0000.21,-000.16,-000.14,0000.27,0000.04,-000.20,0000.29,-000.04,16.0,22.3,,00.0,0642.3,30.6
2021-11-13T15:05:00Z,00000200,01000000,-000.49,0000.30,-000.08,0000.06,0000.26,0000.04,0000.30,0000.13,0000.07,16.1,22.3,,00.0,0642.4,30.6
2021-11-13T15:06:00Z,00000200,01000000,0000.28,-000.07,0000.02,0000.37,0000.26,-000.05,0000.10,0000.20,0000.30,16.1,22.3,,00.0,0642.4,30.6
2021-11-13T15:07:00Z,00000200,01000000,0000.04,0000.52,0000.27,-000.08,0000.30,0000.20,0000.02,0000.11,0000.06,16.1,22.3,,00.0,0642.4,30.6
2021-11-13T15:08:00Z,00000200,01000000,0000.74,0000.22,-000.04,0000.32,0000.14,0000.22,0000.20,-000.12,0000.25,16.2,22.3,,00.0,0642.4,30.7
2021-11-13T15:09:00Z,00000200,01000000,0000.42,0000.27,0000.38,-000.81,0000.39,0000.09,-000.49,0000.02,0000.01,16.2,22.3,,00.0,0642.3,30.7
2021-11-13T15:10:00Z,00000200,01000000,0000.68,0000.37,-000.25,0000.23,0000.18,0000.06,0000.75,0000.13,-000.02,16.2,22.3,,00.0,0642.4,30.7
2021-11-13T15:11:00Z,00000200,01000000,0000.66,0000.16,0000.01,0000.34,-000.16,0000.05,-000.17,-000.24,-000.25,16.2,22.3,,00.0,0642.4,30.6
2021-11-13T15:12:00Z,00000200,01000000,-000.18,0000.07,0000.05,-000.30,0000.02,0000.30,0000.07,0000.20,0000.12,16.2,22.4,,00.0,0642.4,30.6
2021-11-13T15:13:00Z,00000200,01000000,0000.31,0000.37,-000.06,0000.68,0000.42,-000.01,-000.40,0000.00,0000.06,16.2,22.4,,00.0,0642.4,30.7
2021-11-13T15:14:00Z,00000200,01000000,0000.04,0000.08,0000.35,0000.41,-000.02,-000.01,0000.42,0000.04,-000.07,16.3,22.4,,00.0,0642.5,30.7
2021-11-13T15:15:00Z,00000200,01000000,-000.06,0000.29,0000.16,0000.27,0000.09,0000.22,0000.09,0000.27,0000.14,16.3,22.4,,00.0,0642.5,30.7
2021-11-13T15:16:00Z,00000200,01000000,0000.83,0000.22,-000.13,0000.00,0000.25,-000.26,-000.01,-000.14,-000.02,16.3,22.4,,00.0,0642.5,30.7
2021-11-13T15:17:00Z,00000200,01000000,0000.29,0000.43,-000.05,0000.37,0000.50,-000.05,-000.01,0000.12,-000.03,16.3,22.4,,00.0,0642.5,30.7
2021-11-13T15:18:00Z,00000200,01000000,0000.13,0000.15,-000.12,0000.01,0000.14,0000.01,-000.22,-000.33,0000.05,16.3,22.5,,00.0,0642.5,30.7
2021-11-13T15:19:00Z,00000200,01000000,0000.52,0000.25,-000.08,0000.35,0000.02,-000.20,-000.08,-000.18,-000.07,16.4,22.5,,00.0,0642.5,30.7
2021-11-13T15:20:00Z,00000200,01000000,0000.52,0000.08,0000.10,0000.21,0000.43,-000.03,0000.31,0000.38,0000.15,16.4,22.4,,00.0,0642.6,30.7
2021-11-13T15:21:00Z,00000200,01000000,0000.63,0000.27,-000.15,0000.20,0000.05,-000.12,-000.01,-000.16,-000.26,16.4,22.5,,00.0,0642.6,30.7
2021-11-13T15:22:00Z,00000200,01000000,-000.36,0000.27,0000.09,0000.89,0000.39,0000.13,-000.03,0000.50,0000.00,16.4,22.5,,00.0,0642.6,30.7
2021-11-13T15:23:00Z,00000200,01000000,0000.39,0000.44,0000.04,0000.29,0000.13,-000.04,0000.06,-000.38,0000.10,16.4,22.5,,00.0,0642.6,30.7
2021-11-13T15:24:00Z,00000200,01000000,0000.26,0000.18,0000.06,0000.01,-000.09,-000.09,0000.00,0000.33,0000.41,16.5,22.5,,00.0,0642.6,30.7
2021-11-13T15:25:00Z,00000200,01000000,0000.08,0000.21,0000.30,0000.05,0000.10,-000.15,0000.04,-000.02,-000.24,16.5,22.5,,00.0,0642.6,30.7
2021-11-13T15:26:00Z,00000200,01000000,0000.01,0000.27,-000.10,0000.12,0000.09,0000.04,0000.07,0000.11,0000.19,16.5,22.6,,00.0,0642.6,30.7
2021-11-13T15:27:00Z,00000200,01000000,0000.39,0000.32,0000.12,0000.03,-000.13,-000.10,0000.10,-000.22,0000.02,16.5,22.6,,00.0,0642.6,30.7
2021-11-13T15:28:00Z,00000200,01000000,0000.57,-000.05,-000.01,0000.09,0000.15,0000.06,0000.26,0000.02,0000.26,16.5,22.6,,00.0,0642.6,30.7
2021-11-13T15:29:00Z,00000200,01000000,0000.44,0000.14,0000.10,0000.32,0000.18,-000.04,-000.18,-000.02,0000.06,16.5,22.6,,00.0,0642.7,30.7
2021-11-13T15:30:00Z,00000200,01000000,0000.47,0000.15,-000.36,0000.34,0000.30,0000.19,0000.32,0000.09,0000.11,16.6,22.6,,00.0,0642.7,30.7
2021-11-13T15:31:00Z,00000200,01000000,0000.57,0000.11,-000.02,0000.31,-000.04,0000.06,-000.28,0000.08,-000.24,16.6,22.6,,00.0,0642.7,30.7
2021-11-13T15:32:00Z,00000200,01000000,0000.54,0000.35,-000.23,0000.15,0000.18,0000.11,0000.25,0000.29,-000.07,16.6,22.7,,00.0,0642.7,30.7
2021-11-13T15:33:00Z,00000200,01000000,0000.32,0000.21,0000.22,0000.44,0000.24,0000.51,0000.04,-000.14,-000.09,16.6,22.7,,00.0,0642.8,30.7
2021-11-13T15:34:00Z,00000200,01000000,0000.68,0000.25,-000.00,-000.08,0000.11,0000.24,-000.43,-000.08,-000.14,16.6,22.7,,00.0,0642.8,30.7
2021-11-13T15:35:00Z,00000200,01000000,0000.12,-000.02,0000.13,0000.08,0000.66,0000.20,0000.41,0000.12,0000.38,16.7,22.7,,00.0,0642.8,30.7
2021-11-13T15:36:00Z,00000200,01000000,0000.54,0000.28,0000.05,-000.09,0000.21,-000.04,-000.09,0000.09,-000.09,16.7,22.7,,00.0,0642.8,30.7
2021-11-13T15:37:00Z,00000200,01000000,0000.06,0000.41,0000.16,0000.20,0000.33,0000.19,-000.29,-000.37,-000.22,16.7,22.7,,00.0,0642.9,30.7
2021-11-13T15:38:00Z,00000200,01000000,0000.56,-000.06,-000.13,-000.34,0000.39,-000.27,0000.02,0000.29,0000.01,16.7,22.7,,00.0,0642.8,30.7
2021-11-13T15:39:00Z,00000200,01000000,-000.04,0000.25,-000.16,0000.52,0000.05,0000.15,0000.14,-000.19,-000.15,16.7,22.8,,00.0,0642.9,30.7
2021-11-13T15:40:00Z,00000200,01000000,0000.72,0000.37,0000.35,-000.07,0000.31,0000.09,0000.09,0000.03,-000.13,16.7,22.8,,00.0,0642.8,30.7
2021-11-13T15:41:00Z,00000200,01000000,0000.96,0000.09,-000.01,0000.15,0000.20,-000.14,0000.21,-000.12,0000.23,16.8,22.8,,00.0,0642.8,30.7
2021-11-13T15:42:00Z,00000200,01000000,-000.51,0000.22,-000.02,0000.20,0000.28,-000.23,-000.27,-000.01,0000.13,16.8,22.8,,00.0,0642.8,30.7
2021-11-13T15:43:00Z,00000200,01000000,-000.07,0000.18,-000.12,0000.32,0000.20,-000.06,0000.31,0000.17,-000.01,16.8,22.8,,00.0,0642.8,30.7
2021-11-13T15:44:00Z,00000200,01000000,0000.74,0000.12,0000.04,0000.15,0000.36,0000.55,-000.14,0000.14,-000.07,16.8,22.8,,00.0,0642.8,30.7
2021-11-13T15:45:00Z,00000200,01000000,0000.17,0000.30,-000.00,0000.01,0000.36,-000.05,-000.04,-000.06,0000.13,16.8,22.8,,00.0,0642.8,30.7
2021-11-13T15:46:00Z,00000200,01000000,-000.85,0000.03,-000.03,0000.55,0000.06,-000.00,0000.18,0000.02,0000.14,16.9,22.9,,00.0,0642.8,30.7
2021-11-13T15:47:00Z,00000200,01000000,0000.34,0000.51,0000.13,0000.26,0000.13,0000.05,-000.03,0000.32,-000.15,16.9,22.9,,00.0,0642.7,30.7
2021-11-13T15:48:00Z,00000200,01000000,0000.19,-000.09,-000.01,-000.31,0000.50,-000.18,0000.15,-000.15,0000.20,16.9,22.9,,00.0,0642.7,30.7
2021-11-13T15:49:00Z,00000200,01000000,0000.76,0000.14,-000.37,0000.15,0000.33,-000.29,0000.14,0000.07,0000.06,16.9,22.9,,00.0,0642.7,30.7
2021-11-13T15:50:00Z,00000200,01000000,0000.42,0000.32,0000.14,0000.12,0000.30,0000.02,0000.14,-000.00,-000.24,16.9,22.9,,00.0,0642.7,30.7
2021-11-13T15:51:00Z,00000200,01000000,0000.81,0000.31,0000.16,0000.65,0000.28,-000.28,0000.11,0000.08,0000.00,17.0,22.9,,00.0,0642.7,30.7
2021-11-13T15:52:00Z,00000200,01000000,0000.46,0000.18,0000.29,-000.22,0000.08,0000.13,0000.05,0000.47,0000.85,17.0,23.0,,00.0,0642.7,30.7
2021-11-13T15:53:00Z,00000200,01000000,0001.33,0000.29,-000.00,-000.16,0000.16,-000.09,-000.09,-000.17,-000.22,17.0,23.0,,00.0,0642.7,30.7
2021-11-13T15:54:00Z,00000200,01000000,0000.24,0000.15,-000.02,0000.20,0000.18,0000.61,0000.16,0000.17,-000.11,17.0,23.0,,00.0,0642.8,30.7
2021-11-13T15:55:00Z,00000200,01000000,0000.49,0000.02,0000.09,0000.03,0000.26,-000.28,0000.02,0000.07,0000.18,17.0,23.0,,00.0,0642.8,30.7
2021-11-13T15:56:00Z,00000200,01000000,-000.35,0000.32,0000.22,0000.05,-000.12,0000.12,-000.29,-000.12,-000.21,17.0,23.1,,00.0,0642.8,30.8
2021-11-13T15:57:00Z,00000200,41000000,,,,,,,0000.01,-000.31,0000.06,17.1,23.1,,00.0,0642.8,30.8
2021-11-13T15:58:00Z,00000200,61000000,,,,,,,-000.29,0000.20,0000.21,16.8,23.2,,00.0,0642.0,30.8
2021-11-13T15:59:00Z,00000200,21000000,,,,,,,0000.38,-000.11,-000.42,16.8,23.3,,00.0,0641.9,30.8
